[[{"header":{"parameterUnit":"m.s-1","parameterCategory":1,"la1":30.2991,"la2":30.254,"lo1":-89.0895,"lo2":-89.0444,"dy":0.0017,"dx":0.0017,"nx":28,"ny":28,"refTime":"2023-08-08T21:00:00:Z","depth":0,"parameterNumber":2,"parameterNumberName":"U-component_of_WINDS"},"data":[0,0,0,0,0,0,0,0,0,0,0,0,0,0,0,0,0,0,0,0,0,0,0,0,0,0,0,0,0,0,0,0,0,0,0,0,0,0,0,0,0,0,0,0,0,0,0,0,0,0,0,0,0,0,0,0,0,0,2.4592,2.4593,0,2.4674,2.4675,2.4676,2.4655,2.4653,2.4652,2.465,2.4741,2.4745,2.4749,0,0,0,0,0,0,0,0,0,0,0,0,0,2.4425,2.4428,2.4592,2.4593,2.4594,2.4674,2.4675,2.4676,2.4655,2.4653,2.4651,2.4649,2.474,2.4744,2.4749,0,0,0,0,0,0,0,0,0,0,0,0,0,2.4501,2.4429,2.4592,2.4593,2.4594,2.4674,2.4675,2.4677,2.4656,2.4653,2.4651,2.4649,2.4738,2.4744,2.475,2.4835,0,0,2.4768,2.477,0,0,0,0,0,0,0,0,2.4497,2.4508,2.4592,2.4593,2.4594,2.4652,2.4649,2.473,2.4656,2.4632,2.465,2.4647,2.4714,2.4721,2.4742,2.4839,2.4843,2.4768,2.4772,2.4774,2.4776,0,0,0,0,0,0,0,2.4492,2.4504,2.4625,2.4593,2.4595,2.4592,2.46,2.4665,2.4686,2.4634,2.4633,2.4643,2.4714,2.4737,2.4744,2.4844,2.4768,2.4773,2.4777,2.4779,2.5022,2.5024,0,0,0,0,0,0,2.4484,2.45,2.4622,2.4627,2.4538,2.4597,2.4606,2.4636,2.4685,2.469,2.4645,2.4641,2.4728,2.4737,2.4747,2.4855,2.4774,2.478,2.4783,2.5019,2.5022,2.5026,0,0,0,0,0,0,2.4481,2.4496,2.4619,2.4563,2.4578,2.4603,2.4636,2.4639,2.4661,2.4693,2.4697,2.4664,2.4726,2.4739,2.4814,2.4858,2.4782,2.4788,2.5015,2.502,2.5024,2.5068,0,0,0,0,0,0,2.4476,2.4494,2.4525,2.4564,2.4581,2.4682,2.4638,2.4642,2.4671,2.4668,2.4712,2.4717,2.4725,2.4806,2.482,2.4864,2.4792,2.5012,2.5017,2.5023,2.5063,2.5073,2.5082,0,0,0,0,0,2.447,2.4534,2.4527,2.4541,2.462,2.4684,2.4694,2.4701,2.4674,2.4707,2.4728,2.4716,2.485,2.4813,2.483,2.4876,2.5009,2.5016,2.5022,2.5059,2.5071,2.5082,0,0,0,0,0,0,2.4501,2.4539,2.4531,2.4609,2.4643,2.468,2.4722,2.4713,2.4758,2.4753,2.4761,2.4771,2.4849,2.487,2.4828,2.4965,2.4926,2.4936,2.4948,2.4961,2.497,2.4965,2.4797,0,0,0,0,0,2.4517,2.4563,2.4595,2.4661,2.4678,2.4697,2.4725,2.4727,2.4764,2.4779,2.4805,2.4843,2.4895,2.4928,2.4977,2.5065,2.5077,2.5106,2.5115,2.5123,2.5133,2.5187,2.5201,2.5047,2.5047,2.5047,0,0,2.455,2.4577,2.4606,2.4668,2.4695,2.4746,2.4709,2.4764,2.4804,2.4788,2.4861,2.4882,2.4926,2.5009,2.5047,2.5029,2.5178,2.5131,2.5137,2.5143,2.5195,2.5209,2.5222,2.5051,2.5051,2.505,0,0,2.4638,2.466,2.472,2.4748,2.4789,2.4801,2.4816,2.4855,2.4868,2.4941,2.4932,2.498,2.5066,2.5099,2.5127,2.5231,2.5223,2.5246,2.5299,2.5351,2.5363,2.5374,2.5416,2.543,2.5255,2.5255,2.5256,0,2.4675,2.4749,2.4752,2.4809,2.4839,2.4826,2.4889,2.4916,2.4972,2.4994,2.4972,2.5084,2.5111,2.5205,2.523,2.5252,2.5272,2.5243,2.536,2.5371,2.5382,2.5422,2.5437,2.5258,2.5258,2.5258,2.5257,0,2.4795,2.4847,2.4891,2.4945,2.4979,2.5038,2.5054,2.5089,2.5089,2.5105,2.5182,2.5215,2.5273,2.5294,2.5294,2.5389,2.5377,2.5358,2.532,2.5399,2.5437,2.5452,2.5263,2.5262,2.5261,2.526,0,0,2.4905,2.496,2.4977,2.5003,2.5048,2.5091,2.5151,2.5206,2.5238,2.5277,2.5332,2.5407,2.539,2.5422,2.5426,2.5471,2.5558,2.5447,2.5448,2.547,2.567,2.5688,2.5705,2.5551,2.5554,2.5556,2.5668,0,2.5,2.5105,2.5111,2.5208,2.5259,2.5249,2.5303,2.5339,2.5356,2.5404,2.5424,2.5479,2.545,2.547,2.5514,2.5538,2.5599,2.5529,2.5607,2.5609,2.56,2.5724,2.5741,2.5845,2.5682,2.5685,2.5687,0,2.5124,2.5168,2.527,2.5312,2.5334,2.5382,2.5435,2.5479,2.5522,2.5531,2.5568,2.5567,2.5634,2.5591,2.5686,2.5639,2.5671,2.5688,2.5692,2.5703,2.5655,2.5742,2.5878,2.5895,2.5709,2.5707,2.5706,0,2.52,2.5283,2.5357,2.5379,2.5428,2.5463,2.5486,2.5525,2.5559,2.5606,2.5629,2.5683,2.5714,2.5758,2.5773,2.574,2.587,2.5827,2.5884,2.5884,2.5914,2.5912,2.6061,2.5927,2.5927,2.5927,2.5927,0,2.5308,2.5372,2.5392,2.5437,2.551,2.5518,2.5591,2.5612,2.5647,2.57,2.5693,2.5743,2.5758,2.5811,2.5823,2.5903,2.5916,2.5929,2.5932,2.5932,2.5931,2.5956,2.5951,2.5931,2.593,2.5929,2.5929,0,2.5405,2.542,2.55,2.5541,2.5553,2.5606,2.5643,2.5689,2.5705,2.5771,2.5787,2.5815,2.5878,2.5896,2.5971,2.598,2.6075,2.6069,2.6061,2.6062,2.6119,2.6116,2.6293,2.6319,2.6164,2.6165,2.6166,0,2.5475,2.5524,2.5571,2.5605,2.5629,2.5683,2.5718,2.5728,2.5766,2.5819,2.586,2.5921,2.5972,2.6073,2.6102,2.6161,2.616,2.6218,2.6169,2.6169,2.6167,2.6165,2.6173,2.6228,2.623,2.6231,2.6232,0,2.5598,2.5604,2.5654,2.5708,2.5749,2.5792,2.5833,2.5862,2.5879,2.5922,2.5986,2.6025,2.6103,2.6166,2.6226,2.6253,2.6248,2.6247,2.6264,2.6267,2.6261,2.627,2.6091,2.6244,2.6243,2.6242,2.6241,2.6241,2.5687,2.5733,2.5774,2.583,2.5863,2.5902,2.5949,2.5971,2.6024,2.6088,2.6091,2.6161,2.6206,2.6287,2.6317,2.6375,2.6358,2.6382,2.6389,2.6396,2.6403,2.6249,2.6385,2.6385,2.6385,2.6385,2.6384,0,2.5815,2.5841,2.5893,2.5952,2.5998,2.5985,2.6032,2.6072,2.6134,2.6175,2.6225,2.6301,2.6363,2.6397,2.646,2.65,2.65,2.6517,2.6516,2.6524,2.6411,2.6392,2.6516,2.6516,2.6516,2.6516,2.6516,2.6516,2.5887,2.5964,2.5976,2.6071,2.6097,2.6165,2.6193,2.6232,2.6265,2.635,2.6401,2.6422,2.6462,2.6528,2.6586,2.6595,2.6621,2.6641,2.6649,2.6544,2.6531,2.6518,2.65,2.6645,2.6645,2.6756,2.6757,2.6758]},{"header":{"parameterUnit":"m.s-1","parameterCategory":1,"la1":30.2991,"la2":30.254,"lo1":-89.0895,"lo2":-89.0444,"dy":0.0017,"dx":0.0017,"nx":28,"ny":28,"refTime":"2023-08-08T21:00:00:Z","depth":0,"parameterNumber":3,"parameterNumberName":"V-component_of_WINDS"},"data":[0,0,0,0,0,0,0,0,0,0,0,0,0,0,0,0,0,0,0,0,0,0,0,0,0,0,0,0,0,0,0,0,0,0,0,0,0,0,0,0,0,0,0,0,0,0,0,0,0,0,0,0,0,0,0,0,0,0,4.6895,4.6897,0,4.7056,4.7058,4.7059,4.7102,4.7101,4.71,4.7099,4.726,4.7265,4.727,0,0,0,0,0,0,0,0,0,0,0,0,0,4.6624,4.6629,4.6895,4.6897,4.6899,4.7056,4.7058,4.706,4.7102,4.7101,4.71,4.7099,4.7258,4.7264,4.727,0,0,0,0,0,0,0,0,0,0,0,0,0,4.6759,4.663,4.6895,4.6939,4.6945,4.7055,4.7058,4.7061,4.7103,4.7101,4.71,4.7099,4.7256,4.7264,4.7271,4.7347,0,0,4.7295,4.7298,0,0,0,0,0,0,0,0,4.6751,4.6768,4.6931,4.6937,4.6943,4.7058,4.7021,4.7156,4.7103,4.7043,4.7099,4.7098,4.7193,4.7206,4.7239,4.7355,4.7362,4.7295,4.73,4.7303,4.7306,0,0,0,0,0,0,0,4.6741,4.6762,4.6959,4.6933,4.6941,4.6951,4.6968,4.7047,4.7124,4.7048,4.7051,4.707,4.7196,4.7232,4.7243,4.7364,4.7295,4.7302,4.7307,4.731,4.7554,4.7555,0,0,0,0,0,0,4.6725,4.6754,4.6954,4.6963,4.6842,4.6957,4.6977,4.7022,4.7123,4.7137,4.7071,4.7071,4.7219,4.7234,4.7249,4.7348,4.7303,4.7311,4.7315,4.7552,4.7554,4.7556,0,0,0,0,0,0,4.6719,4.6742,4.6947,4.686,4.6887,4.6963,4.7014,4.7026,4.7062,4.7141,4.7154,4.7093,4.7219,4.7238,4.7324,4.7354,4.7314,4.7321,4.755,4.7553,4.7555,4.7544,0,0,0,0,0,0,4.6711,4.674,4.677,4.686,4.6891,4.7019,4.7016,4.703,4.7075,4.7077,4.7165,4.7178,4.7219,4.7312,4.7331,4.7364,4.7327,4.7547,4.7551,4.7554,4.7542,4.7546,4.7549,0,0,0,0,0,4.6701,4.6758,4.6771,4.6795,4.693,4.7021,4.7039,4.7086,4.7077,4.7108,4.716,4.7175,4.7347,4.732,4.7343,4.7378,4.7546,4.755,4.7554,4.754,4.7545,4.7549,0,0,0,0,0,0,4.6667,4.6771,4.6786,4.6874,4.6939,4.7028,4.7068,4.7089,4.7156,4.7154,4.7209,4.7228,4.7311,4.7352,4.7321,4.7458,4.7447,4.7455,4.7428,4.7434,4.7437,4.7426,4.7334,0,0,0,0,0,4.667,4.6736,4.6823,4.6892,4.6924,4.6991,4.7032,4.7063,4.7131,4.7158,4.7216,4.728,4.735,4.7393,4.7461,4.7548,4.7569,4.7583,4.7587,4.7589,4.7597,4.7649,4.7657,4.757,4.757,4.757,0,0,4.6677,4.6742,4.6779,4.6887,4.6941,4.7008,4.7013,4.7083,4.7134,4.7168,4.7254,4.7298,4.7374,4.7462,4.7503,4.7499,4.7626,4.7595,4.7596,4.7602,4.7654,4.7662,4.767,4.7573,4.7572,4.7572,0,0,4.6724,4.6778,4.6844,4.6899,4.6981,4.7025,4.7041,4.7128,4.716,4.7247,4.7275,4.7336,4.7452,4.7507,4.7549,4.762,4.7638,4.764,4.766,4.7711,4.7718,4.7724,4.7752,4.7761,4.7647,4.7647,4.7647,0,4.6721,4.6824,4.6875,4.6945,4.6993,4.703,4.7097,4.7147,4.7246,4.7278,4.7272,4.7423,4.7476,4.7578,4.7596,4.7628,4.7649,4.7631,4.7713,4.772,4.7726,4.7754,4.7764,4.7647,4.7647,4.7647,4.7647,0,4.6819,4.689,4.6933,4.7031,4.7083,4.7151,4.7213,4.7259,4.7286,4.7331,4.7421,4.7487,4.757,4.7596,4.7621,4.7703,4.7699,4.7702,4.7691,4.7734,4.7761,4.7771,4.7647,4.7647,4.7647,4.7647,0,0,4.6847,4.6975,4.699,4.7037,4.7132,4.7188,4.7258,4.7342,4.7382,4.7449,4.7511,4.761,4.7616,4.7664,4.7696,4.774,4.7796,4.7739,4.7742,4.775,4.7893,4.7892,4.7903,4.7808,4.781,4.7812,4.7888,0,4.6908,4.7038,4.7087,4.7192,4.726,4.7298,4.7359,4.7424,4.7469,4.7532,4.7581,4.7652,4.7652,4.7682,4.7727,4.778,4.7826,4.7775,4.7867,4.787,4.7849,4.7917,4.7914,4.7983,4.7898,4.79,4.7901,0,4.6996,4.7068,4.7181,4.7271,4.7301,4.7356,4.7438,4.7499,4.7573,4.7603,4.7659,4.7689,4.7765,4.7749,4.7856,4.782,4.7861,4.7893,4.7897,4.7909,4.7889,4.7933,4.8005,4.8016,4.7918,4.7917,4.7915,0,4.7009,4.7134,4.7219,4.7257,4.7363,4.7401,4.7447,4.752,4.7569,4.764,4.7672,4.775,4.7794,4.7854,4.7905,4.7888,4.8008,4.7996,4.8036,4.8035,4.8061,4.8059,4.8143,4.8083,4.8083,4.8082,4.8082,0,4.7073,4.7141,4.7227,4.7279,4.7358,4.7413,4.7489,4.7537,4.7603,4.7666,4.7701,4.7759,4.7822,4.7888,4.7929,4.8013,4.8031,4.8058,4.8068,4.8056,4.8053,4.8085,4.8082,4.8085,4.8085,4.8084,4.8084,0,4.7101,4.7161,4.7257,4.735,4.7376,4.743,4.751,4.7562,4.7609,4.7688,4.771,4.7783,4.7864,4.7921,4.8022,4.805,4.8141,4.815,4.8117,4.8122,4.8161,4.8157,4.8271,4.829,4.8213,4.8214,4.8215,0,4.7139,4.7193,4.7294,4.7339,4.7386,4.7458,4.7509,4.7566,4.7617,4.7709,4.7751,4.7834,4.7904,4.803,4.8092,4.8172,4.8184,4.8218,4.8196,4.8184,4.8188,4.8185,4.8192,4.8222,4.8222,4.8223,4.8223,0,4.72,4.7228,4.73,4.7384,4.7444,4.7512,4.758,4.7615,4.7685,4.774,4.7824,4.7879,4.7986,4.8068,4.8155,4.8201,4.8225,4.823,4.8244,4.8233,4.8213,4.8228,4.8129,4.8227,4.8227,4.8226,4.8226,4.8226,4.7236,4.7288,4.7368,4.7448,4.7506,4.757,4.7626,4.7681,4.7753,4.7846,4.7874,4.7962,4.8038,4.8157,4.8205,4.8275,4.8273,4.8292,4.8298,4.8302,4.8304,4.8201,4.829,4.829,4.829,4.829,4.829,0,4.7302,4.7357,4.743,4.7526,4.759,4.7608,4.7685,4.7737,4.7815,4.7885,4.7954,4.8052,4.8133,4.8203,4.8287,4.833,4.8343,4.8351,4.8349,4.836,4.8299,4.828,4.8339,4.8339,4.8339,4.8339,4.8339,4.8339,4.7344,4.7434,4.7471,4.7591,4.7644,4.7732,4.7775,4.7835,4.7892,4.8,4.8069,4.8115,4.8185,4.8276,4.8352,4.8371,4.8401,4.8407,4.8428,4.837,4.8364,4.8359,4.8341,4.8412,4.8412,4.8484,4.8485,4.8485]}]]